Location: Almena Agri - Services Grain Elevator Number 1
(39.8904°N, 99.7073°W)
Time: 01:17:02
(UTC+00:00)

Daily predictions for brighter satellites

Satellite Brightness Start Highest point End
(mag) Time Altitude Azimuth Time Altitude Azimuth Time Altitude Azimuth
YAOGAN 6 3.9 00:00:43 10° ESE 00:03:13 18° ENE 00:05:44 10° NNE
Cosmos 1707 Rocket 3.9 00:00:08 10° SSW 00:04:34 71° W 00:09:02 10° N
Cosmos 1315 Rocket 4.0 00:03:34 10° SSW 00:07:21 44° WNW 00:11:12 10° N
Cosmos 1844 Rocket 3.6 00:02:24 10° NNW 00:07:49 54° WSW 00:13:13 10° S
Cosmos 1980 4.1 00:04:10 10° S 00:09:27 44° ESE 00:14:47 10° NE
NOSS 0 Rocket 4.1 00:04:25 10° S 00:10:26 56° ESE 00:16:32 10° NNE
Aureole 1 Rocket 4.2 00:11:01 10° SE 00:12:04 12° ESE 00:12:04 12° ESE
Cosmos 1346 Rocket 3.9 00:10:53 10° NNW 00:14:42 47° W 00:18:32 10° S
SL-8 R/B 3.7 00:10:40 10° WNW 00:15:32 89° S 00:20:21 10° ESE
COBE Rocket 3.8 00:12:22 10° N 00:17:01 82° WNW 00:21:42 10° SSW
COSMOS 2428 3.2 00:14:41 10° SW 00:20:17 62° WNW 00:25:56 10° NNE
CSL-04 Rocket 4.4 00:19:27 10° SE 00:23:54 29° ENE 00:28:22 10° N
Cosmos 1908 Rocket 4.2 00:22:25 10° NNE 00:26:21 31° ENE 00:30:14 10° SE
Meteor 1-5 Rocket 4.1 00:21:08 10° N 00:26:44 89° E 00:32:06 10° S
COSMO-SKYMED 1 2.8 00:23:10 10° NNE 00:27:23 48° E 00:31:34 10° S
USA 267 3.9 00:24:12 10° SSE 00:30:37 58° SW 00:37:04 10° NW
Cosmos 1666 3.4 00:27:21 10° NNE 00:30:38 28° ENE 00:33:54 10° SE
FengYun 1-2 T 4.2 00:28:30 10° SSE 00:33:49 55° ENE 00:39:10 10° N
YAOGAN 1 3.2 00:30:28 10° SE 00:34:15 31° ENE 00:38:05 10° N
ERBS 2.5 00:34:24 10° NW 00:37:43 70° SW 00:41:03 10° SE
RESURS DK-1 3.5 00:34:07 10° SW 00:38:02 42° WNW 00:42:00 10° N
ATLAS 3B R/B 3.5 00:32:50 10° NW 00:39:22 54° WSW 00:46:05 10° SSE
SMAP 4.3 00:35:11 10° S 00:39:38 45° W 00:44:06 10° NNW
BREEZE-M DEB (TANK) 3.1 00:36:01 10° WNW 00:40:15 33° N 00:41:10 27° NNE
Centaur D-1A AC-31 3.3 00:38:25 10° SSW 00:41:18 21° SSE 00:46:12 11° ESE
Nadezhda 4 Rocket 4.1 00:38:46 10° S 00:45:06 79° W 00:51:28 10° N
Cosmos 2251 Rocket 3.7 00:40:16 10° SSW 00:45:34 72° WNW 00:50:53 10° NNE
SKYMED 3 4.5 00:47:12 10° NNE 00:51:34 89° WNW 00:55:54 10° SSW
Cosmos 1812 4.1 00:49:20 10° SSW 00:52:58 40° WNW 00:56:38 10° N
Cosmos 1733 Rocket 4.1 00:49:37 10° NNW 00:53:48 46° W 00:58:00 10° SSW
Okean 1-7 3.2 00:51:07 10° SSE 00:55:15 48° E 00:56:00 43° ENE
Exosat Rocket 4.3 00:49:52 10° SW 00:55:20 51° WNW 01:00:13 10° N
Cosmos 2278 Rocket 2.1 00:53:54 10° NNW 00:59:35 88° WSW 01:05:14 10° SSE
Atlas Centaur 2 4.2 00:58:21 10° WSW 01:05:30 36° SSW 01:12:27 12° SE
CZ-4 R/B 1.3 01:03:36 10° SSE 01:07:33 84° WSW 01:11:28 10° NNW
Cosmos 292 Rocket 3.8 01:03:04 10° N 01:07:51 54° ENE 01:08:23 51° E
Cosmos 2026 Rocket 3.8 01:01:58 10° S 01:07:59 70° E 01:14:02 10° NNE
Cosmos 1536 3.6 01:05:53 10° NNW 01:09:49 53° W 01:13:42 10° S
SL-16 R/B 2.4 01:04:29 10° S 01:09:53 48° ESE 01:10:32 46° E
Envisat 4.0 01:05:34 10° S 01:10:27 48° W 01:15:22 10° NNW
Cosmos 2333 Rocket 4.2 01:07:46 10° WSW 01:12:22 24° NW 01:17:01 10° N
SKYMED 2 4.5 01:11:27 11° N 01:15:30 47° WNW 01:19:40 10° SSW
ISS -1.9 01:13:17 10° NW 01:14:49 23° NNW 01:14:49 23° NNW
STARLINK-60 3.9 01:15:13 10° SW 01:17:45 48° WSW 01:17:45 48° WSW
Cosmos 614 Rocket 4.0 01:15:10 10° S 01:19:51 57° ESE 01:19:51 57° ESE
Cosmos 407 Rocket 3.5 01:16:34 10° S 01:21:11 56° SE 01:21:11 56° SE
Cosmos 2237 Rocket 3.0 01:17:45 10° SW 01:23:15 49° WNW 01:27:12 19° N
Lacrosse 5 rocket 3.0 01:20:55 10° W 01:24:28 25° NW 01:25:10 24° NNW
OAO 2 Rocket 3.8 01:21:07 10° WSW 01:25:57 47° S 01:26:22 46° SSE
Cosmos 1703 Rocket 4.1 01:24:09 10° SSW 01:28:31 57° W 01:30:28 31° NNW
Geosat 4.5 01:32:46 46° SSE 01:32:46 46° SSE 01:36:33 10° SSW
OAO 3 Rocket 3.9 01:28:53 10° WSW 01:33:04 42° S 01:33:04 42° S
SL-4 R/B 4.2 01:33:06 10° NW 01:35:01 17° NNW 01:35:01 17° NNW
Meteor 1-18 Rocket 4.1 01:32:26 10° S 01:38:13 86° E 01:38:58 69° NNE
SL-16 R/B 4.3 02:49:35 10° WSW 02:52:29 22° W 02:52:29 22° W
SL-16 R/B 4.4 10:05:44 20° ENE 10:05:44 20° ENE 10:08:45 10° ESE
USA 234 3.8 10:38:45 10° NE 10:43:22 47° NNE 10:43:22 47° NNE
Lacrosse 5 3.2 10:51:12 36° ESE 10:51:12 36° ESE 10:54:15 10° SE
Aureole 1 Rocket 4.1 10:53:55 63° E 10:53:55 63° E 11:00:23 10° SSE
CZ-4C R/B 3.8 10:54:53 32° N 10:57:54 46° NE 11:05:43 10° ESE
Cosmos 1464 Rocket 4.1 10:57:21 10° S 11:03:32 72° E 11:09:41 10° NNE
Cosmos 2297 Rocket 4.2 11:11:44 15° N 11:11:44 15° N 11:12:45 10° N
Cosmos 2227 Rocket 4.1 11:15:19 17° N 11:15:19 17° N 11:16:42 10° N
BREEZE-M DEB (TANK) 4.2 11:17:15 32° S 11:17:15 32° S 11:19:06 10° SSE
COSMO-SKYMED 1 4.1 11:17:25 10° SE 11:21:20 34° ENE 11:23:52 19° NNE
Cosmos 1072 Rocket 4.3 11:17:06 10° SSW 11:23:11 73° W 11:29:18 10° N
COBE Rocket 3.8 11:21:18 10° SSE 11:25:55 79° S 11:25:55 79° S
Okean O Rocket 4.1 11:23:12 10° NE 11:26:37 22° E 11:30:01 10° SE
STARLINK-65 4.5 11:28:14 45° SE 11:28:14 45° SE 11:31:04 10° SE
Cosmos 2242 Rocket 4.5 11:28:28 20° NNE 11:31:20 49° E 11:35:42 10° SSE
STARLINK-69 4.3 11:33:02 47° SSE 11:33:02 47° SSE 11:36:01 10° SE
STARLINK-66 4.2 11:34:33 49° SSE 11:34:33 49° SSE 11:37:37 10° SE
Cosmos 1862 Rocket 3.5 11:35:31 90° W 11:35:31 90° W 11:40:00 10° S
Cosmos 1513 Rocket 4.4 11:30:24 10° SSW 11:36:44 64° W 11:43:07 10° N
STARLINK-70 4.0 11:39:19 51° S 11:39:19 51° S 11:42:31 10° SE
STARLINK-68 4.1 11:41:02 48° S 11:41:02 48° S 11:44:14 10° SE
Nadezhda 4 Rocket 4.0 11:35:08 10° N 11:41:23 82° E 11:47:32 10° S
STARLINK-58 4.0 11:42:33 50° S 11:42:33 50° S 11:45:51 10° SE
STARLINK-62 4.0 11:44:14 48° S 11:44:14 48° S 11:47:31 10° SSE
Cosmos 1371 Rocket 3.8 11:40:09 21° SSW 11:43:42 72° WNW 11:48:56 10° NNE
GEOS 3 Rocket 3.4 11:39:43 10° SSE 11:44:48 72° WSW 11:46:02 51° WNW
STARLINK-63 4.0 11:45:44 50° SSW 11:45:44 50° SSW 11:49:07 10° SSE
Cosmos 614 Rocket 3.8 11:44:07 38° NNW 11:46:09 89° WSW 11:51:15 10° SSE
STARLINK-72 3.9 11:48:46 51° SSW 11:48:46 51° SSW 11:52:18 10° SSE
SL-16 R/B 2.2 11:47:41 47° WNW 11:48:55 57° WSW 11:54:27 10° S
Cosmos 1932 4.5 11:43:21 10° SSW 11:49:38 85° ESE 11:56:06 10° NNE
Cosmos 407 Rocket 3.4 11:47:15 30° NNW 11:49:58 87° WSW 11:55:19 10° SSE
STARLINK-59 4.0 11:52:06 46° SSW 11:52:06 46° SSW 11:55:39 10° SSE
Cosmos 724 4.2 11:48:49 18° SW 11:53:23 69° WNW 11:59:21 10° NNE
STARLINK-55 4.0 11:55:14 44° SW 11:55:14 44° SW 11:58:52 10° SSE
